QPF
0.07 0.05 0.05 0.03 0.02 0.02 0.02 0.01 0.02 0.02 0.02 0.04 0.05 0.05 0.06 0.06 0.07 0.07 0.05 0.04 0.04 0.06 0.07 0.07 0.07 0.05 0.03 0.03 0.04 0.04 0.03 0.02 0.01 0.01 0.01 0.01 0.02 0.04 0.06 0.03 0.01 0.02 0.03
0.06 0.05 0.03 0.03 0.02 0.02 0.02 0.02 0.03 0.02 0.02 0.03 0.04 0.04 0.04 0.05 0.05 0.05 0.05 0.04 0.04 0.05 0.07 0.06 0.06 0.04 0.02 0.02 0.03 0.02 0.02 0.02 0.02 0.01 0.02 0.01 0.01 0.03 0.05 0.04 0.02 0.02 0.02
0.03 0.03 0.02 0.02 0.03 0.04 0.03 0.03 0.03 0.03 0.02 0.02 0.03 0.04 0.04 0.04 0.03 0.04 0.04 0.04 0.05 0.07 0.07 0.05 0.04 0.04 0.02 0.02 0.03 0.02 0.02 0.03 0.02 0.02 0.02 0.02 0.02 0.03 0.03 0.03 0.02 0.01 0.02
0.03 0.04 0.04 0.03 0.04 0.05 0.05 0.04 0.03 0.03 0.03 0.03 0.04 0.06 0.05 0.05 0.05 0.05 0.05 0.05 0.05 0.06 0.07 0.05 0.04 0.04 0.03 0.03 0.03 0.03 0.03 0.04 0.04 0.03 0.02 0.02 0.02 0.03 0.03 0.03 0.02 0.01 0.02
0.02 0.02 0.02 0.02 0.02 0.03 0.04 0.04 0.04 0.04 0.04 0.04 0.04 0.05 0.06 0.06 0.06 0.06 0.05 0.06 0.06 0.06 0.06 0.06 0.06 0.05 0.05 0.05 0.05 0.05 0.04 0.03 0.03 0.03 0.02 0.01 0.02 0.02 0.03 0.03 0.03 0.02 0.02
0.01 0.01 0.01 0.02 0.02 0.02 0.02 0.03 0.04 0.04 0.04 0.05 0.06 0.07 0.07 0.06 0.06 0.08 0.09 0.09 0.10 0.09 0.09 0.08 0.08 0.07 0.06 0.05 0.05 0.05 0.04 0.03 0.02 0.02 0.01 0.01 0.03 0.03 0.02 0.03 0.03 0.03 0.02
0.01 0.02 0.02 0.02 0.02 0.01 0.02 0.02 0.03 0.02 0.02 0.03 0.05 0.06 0.09 0.10 0.10 0.09 0.08 0.07 0.07 0.07 0.07 0.06 0.05 0.03 0.03 0.03 0.03 0.03 0.03 0.03 0.02 0.02 0.02 0.01 0.02 0.04 0.03 0.02 0.03 0.02 0.02
0.02 0.02 0.02 0.01 0.01 0.01 0.01 0.01 0.00 0.01 0.01 0.01 0.03 0.04 0.04 0.06 0.06 0.06 0.05 0.04 0.03 0.03 0.03 0.03 0.03 0.02 0.03 0.03 0.03 0.02 0.01 0.01 0.01 0.02 0.02 0.02 0.02 0.03 0.04 0.03 0.03 0.03 0.02
0.02 0.02 0.02 0.02 0.01 0.00 0.00 0.00 0.01 0.01 0.01 0.02 0.04 0.04 0.03 0.04 0.03 0.03 0.04 0.03 0.02 0.02 0.01 0.02 0.02 0.02 0.02 0.02 0.02 0.02 0.02 0.01 0.02 0.02 0.02 0.02 0.02 0.03 0.04 0.05 0.04 0.04 0.03
0.01 0.01 0.01 0.01 0.01 0.00 0.00 0.00 0.01 0.01 0.02 0.03 0.04 0.04 0.04 0.05 0.03 0.02 0.02 0.02 0.02 0.02 0.02 0.02 0.02 0.02 0.03 0.02 0.02 0.03 0.03 0.03 0.03 0.03 0.02 0.01 0.02 0.03 0.04 0.04 0.05 0.04 0.04
0.00 0.00 0.00 0.01 0.01 0.01 0.00 0.01 0.01 0.01 0.01 0.01 0.02 0.04 0.04 0.05 0.03 0.01 0.01 0.01 0.01 0.01 0.02 0.02 0.02 0.03 0.03 0.04 0.04 0.04 0.04 0.06 0.05 0.05 0.04 0.03 0.02 0.02 0.03 0.04 0.05 0.04 0.04
0.00 0.00 0.00 0.00 0.00 0.00 0.00 0.01 0.01 0.01 0.01 0.01 0.02 0.03 0.04 0.04 0.02 0.01 0.01 0.01 0.02 0.02 0.02 0.02 0.02 0.02 0.03 0.04 0.04 0.05 0.05 0.05 0.05 0.05 0.05 0.04 0.04 0.03 0.03 0.03 0.04 0.04 0.03
0.00 0.00 0.00 0.00 0.00 0.00 0.00 0.00 0.00 0.01 0.01 0.01 0.01 0.02 0.02 0.02 0.02 0.02 0.02 0.02 0.02 0.02 0.01 0.01 0.01 0.01 0.02 0.02 0.03 0.04 0.04 0.04 0.05 0.06 0.06 0.05 0.06 0.05 0.05 0.05 0.04 0.04 0.04
0.00 0.00 0.00 0.00 0.00 0.00 0.00 0.00 0.00 0.00 0.01 0.01 0.01 0.01 0.01 0.01 0.01 0.02 0.02 0.02 0.02 0.02 0.02 0.02 0.01 0.01 0.01 0.01 0.02 0.03 0.03 0.03 0.04 0.06 0.08 0.07 0.07 0.06 0.06 0.05 0.05 0.04 0.03
0.00 0.00 0.00 0.00 0.00 0.00 0.00 0.00 0.00 0.00 0.00 0.00 0.00 0.00 0.00 0.00 0.00 0.01 0.01 0.01 0.01 0.01 0.01 0.02 0.02 0.02 0.02 0.02 0.02 0.02 0.02 0.03 0.04 0.05 0.06 0.07 0.05 0.04 0.04 0.03 0.04 0.04 0.04
0.00 0.00 0.00 0.00 0.00 0.00 0.01 0.00 0.00 0.00 0.00 0.00 0.00 0.00 0.00 0.00 0.00 0.00 0.01 0.01 0.01 0.02 0.01 0.01 0.02 0.02 0.02 0.02 0.02 0.02 0.02 0.02 0.03 0.05 0.06 0.07 0.06 0.05 0.04 0.04 0.04 0.05 0.05
0.00 0.00 0.00 0.00 0.00 0.00 0.00 0.00 0.00 0.00 0.00 0.00 0.00 0.00 0.00 0.00 0.00 0.00 0.01 0.01 0.01 0.02 0.01 0.01 0.01 0.01 0.01 0.01 0.02 0.02 0.02 0.02 0.02 0.03 0.04 0.04 0.04 0.04 0.03 0.04 0.04 0.06 0.07
0.00 0.00 0.00 0.00 0.01 0.00 0.00 0.00 0.00 0.00 0.00 0.00 0.00 0.00 0.00 0.00 0.00 0.00 0.00 0.00 0.01 0.01 0.01 0.01 0.01 0.01 0.01 0.01 0.01 0.01 0.01 0.01 0.01 0.02 0.02 0.02 0.03 0.03 0.03 0.03 0.04 0.05 0.07
0.00 0.00 0.00 0.00 0.01 0.01 0.01 0.01 0.00 0.00 0.00 0.00 0.00 0.00 0.00 0.01 0.01 0.00 0.00 0.00 0.00 0.01 0.01 0.01 0.01 0.01 0.01 0.01 0.01 0.01 0.01 0.01 0.01 0.01 0.01 0.02 0.02 0.04 0.04 0.04 0.04 0.04 0.05
0.00 0.00 0.00 0.00 0.00 0.01 0.01 0.01 0.01 0.00 0.00 0.01 0.00 0.00 0.00 0.01 0.01 0.01 0.01 0.01 0.00 0.00 0.00 0.01 0.01 0.00 0.00 0.01 0.01 0.01 0.01 0.01 0.02 0.02 0.01 0.02 0.02 0.04 0.05 0.05 0.04 0.04 0.05
0.00 0.00 0.00 0.00 0.01 0.01 0.01 0.01 0.01 0.01 0.01 0.01 0.01 0.01 0.01 0.00 0.00 0.00 0.00 0.00 0.00 0.00 0.01 0.00 0.00 0.00 0.00 0.00 0.01 0.02 0.02 0.02 0.02 0.02 0.02 0.02 0.02 0.03 0.04 0.04 0.05 0.05 0.05
0.00 0.00 0.00 0.01 0.01 0.01 0.01 0.01 0.01 0.01 0.01 0.01 0.01 0.01 0.01 0.01 0.01 0.01 0.01 0.00 0.00 0.00 0.00 0.00 0.00 0.00 0.00 0.00 0.01 0.02 0.02 0.02 0.02 0.02 0.02 0.02 0.02 0.02 0.03 0.04 0.04 0.05 0.07
0.00 0.00 0.00 0.00 0.01 0.01 0.01 0.01 0.02 0.02 0.02 0.01 0.01 0.01 0.01 0.01 0.01 0.01 0.01 0.01 0.01 0.01 0.01 0.01 0.01 0.00 0.00 0.00 0.01 0.02 0.02 0.02 0.02 0.02 0.02 0.02 0.02 0.02 0.03 0.04 0.05 0.05 0.06
0.00 0.00 0.00 0.01 0.01 0.01 0.01 0.01 0.02 0.02 0.02 0.02 0.01 0.01 0.01 0.01 0.02 0.02 0.02 0.02 0.02 0.02 0.02 0.02 0.01 0.01 0.00 0.01 0.01 0.02 0.03 0.03 0.02 0.02 0.01 0.01 0.01 0.01 0.02 0.03 0.04 0.04 0.05
0.00 0.00 0.01 0.01 0.01 0.01 0.01 0.02 0.03 0.03 0.02 0.02 0.01 0.01 0.01 0.01 0.01 0.01 0.01 0.02 0.02 0.02 0.03 0.03 0.02 0.01 0.01 0.02 0.03 0.03 0.03 0.04 0.03 0.02 0.01 0.01 0.01 0.01 0.02 0.03 0.04 0.04 0.05
0.01 0.01 0.01 0.02 0.02 0.02 0.02 0.03 0.03 0.03 0.03 0.02 0.02 0.01 0.00 0.01 0.01 0.01 0.01 0.01 0.01 0.01 0.02 0.03 0.02 0.02 0.02 0.03 0.04 0.04 0.04 0.04 0.03 0.02 0.01 0.01 0.01 0.01 0.02 0.02 0.03 0.05 0.06
MSLP
1017.54 1017.80 1018.09 1018.38 1018.63 1018.81 1018.93 1018.98 1018.99 1018.99 1019.00 1019.04 1019.10 1019.19 1019.28 1019.35 1019.38 1019.37 1019.32 1019.24 1019.15 1019.08 1019.05 1019.07 1019.16 1019.31 1019.49 1019.70 1019.90 1020.07 1020.18 1020.21 1020.16 1020.01 1019.79 1019.50 1019.18 1018.85 1018.55 1018.30 1018.13 1018.06 1018.08
1017.70 1017.97 1018.26 1018.54 1018.78 1018.95 1019.06 1019.11 1019.12 1019.12 1019.14 1019.17 1019.23 1019.31 1019.38 1019.44 1019.47 1019.46 1019.41 1019.33 1019.26 1019.20 1019.18 1019.21 1019.30 1019.45 1019.65 1019.87 1020.09 1020.28 1020.43 1020.52 1020.52 1020.45 1020.30 1020.08 1019.82 1019.54 1019.26 1019.02 1018.84 1018.73 1018.70
1017.73 1018.02 1018.32 1018.60 1018.83 1018.99 1019.09 1019.14 1019.16 1019.17 1019.19 1019.23 1019.29 1019.37 1019.44 1019.50 1019.53 1019.53 1019.49 1019.44 1019.38 1019.35 1019.34 1019.39 1019.48 1019.63 1019.82 1020.03 1020.25 1020.46 1020.62 1020.74 1020.80 1020.80 1020.72 1020.58 1020.40 1020.18 1019.96 1019.74 1019.56 1019.42 1019.36
1017.58 1017.90 1018.22 1018.50 1018.73 1018.89 1018.99 1019.05 1019.09 1019.11 1019.15 1019.21 1019.29 1019.38 1019.46 1019.53 1019.58 1019.59 1019.58 1019.55 1019.52 1019.51 1019.52 1019.57 1019.67 1019.81 1019.98 1020.17 1020.37 1020.56 1020.73 1020.87 1020.96 1021.01 1021.00 1020.95 1020.84 1020.70 1020.54 1020.37 1020.21 1020.07 1019.97
1017.27 1017.62 1017.95 1018.25 1018.48 1018.65 1018.77 1018.85 1018.91 1018.97 1019.05 1019.14 1019.24 1019.35 1019.46 1019.54 1019.60 1019.64 1019.64 1019.64 1019.64 1019.64 1019.68 1019.74 1019.83 1019.96 1020.10 1020.26 1020.43 1020.59 1020.74 1020.88 1020.99 1021.07 1021.13 1021.14 1021.12 1021.06 1020.97 1020.85 1020.73 1020.60 1020.49
1016.86 1017.23 1017.58 1017.87 1018.11 1018.29 1018.43 1018.55 1018.65 1018.76 1018.88 1019.02 1019.16 1019.30 1019.42 1019.52 1019.59 1019.63 1019.66 1019.67 1019.69 1019.72 1019.76 1019.83 1019.93 1020.03 1020.15 1020.28 1020.40 1020.53 1020.65 1020.77 1020.89 1021.00 1021.09 1021.17 1021.22 1021.24 1021.22 1021.17 1021.08 1020.98 1020.88
1016.44 1016.82 1017.16 1017.45 1017.69 1017.88 1018.05 1018.20 1018.35 1018.51 1018.68 1018.86 1019.04 1019.20 1019.33 1019.44 1019.51 1019.55 1019.58 1019.60 1019.63 1019.68 1019.74 1019.82 1019.92 1020.02 1020.12 1020.21 1020.31 1020.40 1020.49 1020.59 1020.70 1020.82 1020.95 1021.08 1021.19 1021.27 1021.32 1021.33 1021.29 1021.23 1021.14
1016.11 1016.46 1016.78 1017.05 1017.28 1017.48 1017.66 1017.85 1018.05 1018.26 1018.47 1018.69 1018.88 1019.05 1019.19 1019.28 1019.33 1019.37 1019.39 1019.41 1019.44 1019.50 1019.58 1019.68 1019.79 1019.90 1020.00 1020.08 1020.15 1020.22 1020.29 1020.37 1020.48 1020.61 1020.76 1020.92 1021.08 1021.22 1021.32 1021.38 1021.39 1021.35 1021.29
1015.90 1016.21 1016.48 1016.72 1016.93 1017.13 1017.33 1017.54 1017.77 1018.01 1018.26 1018.49 1018.69 1018.85 1018.96 1019.03 1019.06 1019.06 1019.07 1019.08 1019.13 1019.20 1019.31 1019.43 1019.57 1019.69 1019.80 1019.89 1019.97 1020.03 1020.09 1020.17 1020.27 1020.41 1020.57 1020.76 1020.95 1021.12 1021.27 1021.37 1021.41 1021.41 1021.37
1015.80 1016.05 1016.28 1016.47 1016.66 1016.84 1017.05 1017.28 1017.52 1017.78 1018.04 1018.27 1018.46 1018.59 1018.67 1018.70 1018.69 1018.67 1018.66 1018.67 1018.72 1018.81 1018.94 1019.10 1019.27 1019.43 1019.57 1019.69 1019.77 1019.85 1019.92 1020.00 1020.11 1020.26 1020.44 1020.64 1020.85 1021.05 1021.22 1021.35 1021.42 1021.44 1021.43
1015.74 1015.95 1016.13 1016.28 1016.44 1016.62 1016.82 1017.05 1017.30 1017.56 1017.81 1018.02 1018.18 1018.28 1018.32 1018.31 1018.27 1018.23 1018.19 1018.20 1018.27 1018.38 1018.55 1018.74 1018.95 1019.15 1019.33 1019.47 1019.59 1019.69 1019.78 1019.88 1020.00 1020.16 1020.35 1020.57 1020.80 1021.01 1021.20 1021.34 1021.43 1021.48 1021.48
1015.65 1015.82 1015.97 1016.10 1016.25 1016.42 1016.61 1016.84 1017.09 1017.34 1017.57 1017.76 1017.88 1017.95 1017.95 1017.91 1017.84 1017.77 1017.74 1017.75 1017.83 1017.97 1018.16 1018.39 1018.63 1018.86 1019.08 1019.25 1019.40 1019.53 1019.65 1019.77 1019.92 1020.10 1020.31 1020.54 1020.78 1021.00 1021.20 1021.35 1021.46 1021.52 1021.54
1015.44 1015.60 1015.74 1015.87 1016.02 1016.20 1016.40 1016.62 1016.86 1017.10 1017.30 1017.46 1017.55 1017.59 1017.56 1017.50 1017.42 1017.36 1017.33 1017.36 1017.45 1017.61 1017.82 1018.06 1018.32 1018.57 1018.80 1019.00 1019.18 1019.33 1019.48 1019.63 1019.81 1020.02 1020.25 1020.50 1020.75 1020.99 1021.20 1021.37 1021.49 1021.57 1021.61
1015.05 1015.24 1015.40 1015.56 1015.73 1015.92 1016.13 1016.36 1016.59 1016.81 1016.99 1017.12 1017.19 1017.21 1017.17 1017.11 1017.04 1016.98 1016.97 1017.02 1017.12 1017.29 1017.50 1017.75 1018.00 1018.25 1018.48 1018.68 1018.86 1019.04 1019.21 1019.40 1019.61 1019.85 1020.12 1020.41 1020.69 1020.95 1021.18 1021.37 1021.51 1021.61 1021.67
1014.50 1014.73 1014.94 1015.14 1015.35 1015.57 1015.80 1016.03 1016.26 1016.46 1016.62 1016.73 1016.79 1016.80 1016.77 1016.72 1016.67 1016.64 1016.65 1016.71 1016.82 1016.99 1017.18 1017.40 1017.63 1017.84 1018.05 1018.23 1018.41 1018.59 1018.79 1019.02 1019.27 1019.57 1019.88 1020.21 1020.54 1020.84 1021.11 1021.33 1021.50 1021.63 1021.73
1013.81 1014.10 1014.36 1014.62 1014.87 1015.13 1015.38 1015.61 1015.83 1016.01 1016.16 1016.25 1016.31 1016.32 1016.30 1016.28 1016.26 1016.26 1016.29 1016.37 1016.48 1016.62 1016.79 1016.96 1017.13 1017.30 1017.46 1017.61 1017.78 1017.96 1018.19 1018.45 1018.76 1019.12 1019.50 1019.90 1020.29 1020.65 1020.96 1021.23 1021.45 1021.63 1021.77
1013.05 1013.39 1013.71 1014.02 1014.31 1014.59 1014.85 1015.08 1015.29 1015.45 1015.58 1015.66 1015.71 1015.73 1015.74 1015.74 1015.75 1015.78 1015.84 1015.92 1016.02 1016.13 1016.25 1016.36 1016.47 1016.57 1016.68 1016.80 1016.95 1017.14 1017.39 1017.71 1018.09 1018.52 1018.98 1019.46 1019.93 1020.36 1020.75 1021.08 1021.36 1021.59 1021.79
1012.28 1012.65 1013.01 1013.35 1013.67 1013.95 1014.21 1014.43 1014.61 1014.75 1014.85 1014.92 1014.97 1015.00 1015.02 1015.05 1015.09 1015.15 1015.22 1015.29 1015.38 1015.45 1015.52 1015.57 1015.61 1015.65 1015.71 1015.79 1015.94 1016.15 1016.44 1016.81 1017.27 1017.78 1018.34 1018.92 1019.48 1020.00 1020.47 1020.88 1021.22 1021.52 1021.77
1011.52 1011.91 1012.27 1012.62 1012.93 1013.21 1013.45 1013.64 1013.79 1013.90 1013.97 1014.03 1014.06 1014.10 1014.13 1014.18 1014.24 1014.31 1014.38 1014.46 1014.51 1014.55 1014.57 1014.56 1014.55 1014.54 1014.56 1014.64 1014.78 1015.02 1015.36 1015.81 1016.35 1016.96 1017.62 1018.29 1018.95 1019.57 1020.13 1020.62 1021.04 1021.40 1021.72
1010.79 1011.15 1011.50 1011.82 1012.11 1012.35 1012.55 1012.71 1012.82 1012.89 1012.94 1012.97 1013.00 1013.03 1013.07 1013.13 1013.20 1013.27 1013.34 1013.40 1013.43 1013.44 1013.41 1013.37 1013.32 1013.29 1013.29 1013.37 1013.54 1013.82 1014.23 1014.75 1015.37 1016.07 1016.83 1017.61 1018.36 1019.08 1019.73 1020.30 1020.80 1021.24 1021.62
1010.05 1010.36 1010.66 1010.93 1011.18 1011.37 1011.53 1011.64 1011.71 1011.75 1011.77 1011.78 1011.80 1011.82 1011.86 1011.92 1011.99 1012.06 1012.12 1012.16 1012.18 1012.16 1012.11 1012.05 1011.99 1011.95 1011.96 1012.07 1012.27 1012.61 1013.07 1013.67 1014.37 1015.16 1016.01 1016.88 1017.72 1018.53 1019.26 1019.92 1020.51 1021.02 1021.47
1009.26 1009.50 1009.74 1009.95 1010.14 1010.29 1010.40 1010.47 1010.51 1010.52 1010.52 1010.51 1010.51 1010.53 1010.56 1010.61 1010.67 1010.73 1010.78 1010.81 1010.81 1010.78 1010.72 1010.66 1010.60 1010.58 1010.63 1010.77 1011.03 1011.42 1011.95 1012.61 1013.38 1014.25 1015.17 1016.11 1017.04 1017.92 1018.74 1019.48 1020.14 1020.73 1021.25
1008.39 1008.55 1008.71 1008.87 1009.00 1009.11 1009.18 1009.23 1009.24 1009.24 1009.22 1009.21 1009.20 1009.20 1009.22 1009.26 1009.30 1009.35 1009.38 1009.40 1009.39 1009.36 1009.31 1009.26 1009.24 1009.25 1009.34 1009.53 1009.84 1010.29 1010.87 1011.59 1012.42 1013.34 1014.31 1015.31 1016.30 1017.25 1018.15 1018.97 1019.71 1020.38 1020.98
1007.40 1007.50 1007.60 1007.70 1007.79 1007.86 1007.92 1007.95 1007.95 1007.95 1007.93 1007.91 1007.89 1007.89 1007.89 1007.91 1007.94 1007.96 1007.98 1007.99 1007.98 1007.96 1007.93 1007.91 1007.93 1007.99 1008.13 1008.38 1008.74 1009.23 1009.86 1010.61 1011.48 1012.43 1013.45 1014.49 1015.53 1016.54 1017.51 1018.40 1019.23 1019.98 1020.67
1006.31 1006.35 1006.40 1006.46 1006.53 1006.59 1006.63 1006.66 1006.67 1006.66 1006.65 1006.63 1006.61 1006.60 1006.59 1006.59 1006.59 1006.60 1006.61 1006.61 1006.61 1006.60 1006.61 1006.63 1006.69 1006.81 1007.01 1007.31 1007.72 1008.26 1008.92 1009.70 1010.59 1011.56 1012.60 1013.67 1014.75 1015.81 1016.83 1017.80 1018.71 1019.55 1020.32
1005.12 1005.12 1005.14 1005.18 1005.23 1005.28 1005.32 1005.36 1005.38 1005.38 1005.37 1005.35 1005.33 1005.31 1005.28 1005.26 1005.25 1005.25 1005.24 1005.25 1005.26 1005.29 1005.33 1005.41 1005.53 1005.72 1005.98 1006.33 1006.80 1007.37 1008.06 1008.86 1009.75 1010.74 1011.78 1012.87 1013.98 1015.08 1016.16 1017.20 1018.19 1019.12 1019.97
Thickness
5694 5692 5689 5686 5685 5683 5681 5679 5678 5677 5676 5675 5674 5673 5672 5671 5671 5669 5669 5668 5667 5667 5667 5666 5666 5665 5665 5665 5665 5664 5663 5662 5661 5663 5664 5665 5665 5666 5667 5667 5667 5666 5666
5688 5684 5681 5679 5678 5676 5674 5673 5672 5670 5669 5668 5667 5667 5666 5665 5664 5663 5662 5662 5661 5660 5660 5660 5660 5660 5660 5660 5659 5659 5658 5658 5658 5657 5658 5659 5659 5660 5661 5661 5661 5662 5661
5681 5678 5675 5672 5670 5669 5667 5666 5665 5664 5662 5662 5661 5660 5659 5658 5658 5657 5656 5656 5655 5655 5654 5654 5654 5654 5654 5654 5654 5654 5654 5654 5653 5652 5652 5652 5653 5654 5654 5655 5655 5655 5656
5674 5671 5668 5665 5664 5662 5660 5659 5657 5656 5655 5654 5653 5653 5652 5651 5650 5650 5650 5649 5649 5648 5648 5648 5648 5648 5649 5649 5649 5649 5649 5648 5647 5646 5646 5646 5646 5647 5647 5648 5648 5649 5649
5666 5664 5661 5659 5657 5655 5653 5652 5650 5649 5648 5647 5646 5645 5645 5644 5643 5643 5642 5642 5642 5641 5642 5642 5642 5642 5643 5643 5644 5644 5644 5643 5641 5641 5641 5641 5641 5640 5641 5642 5642 5642 5642
5660 5656 5654 5652 5650 5648 5646 5645 5643 5642 5641 5640 5639 5638 5637 5637 5636 5635 5634 5634 5634 5635 5635 5635 5635 5636 5637 5637 5638 5639 5639 5638 5637 5636 5636 5636 5637 5637 5637 5637 5636 5636 5636
5653 5650 5647 5645 5643 5641 5640 5637 5636 5634 5633 5632 5631 5630 5629 5628 5627 5627 5627 5627 5627 5627 5628 5628 5629 5631 5631 5631 5632 5633 5633 5634 5634 5634 5632 5633 5633 5634 5632 5631 5631 5631 5631
5646 5643 5640 5638 5635 5634 5632 5630 5629 5627 5626 5625 5624 5623 5622 5621 5621 5620 5620 5620 5620 5621 5621 5622 5622 5624 5625 5625 5625 5626 5627 5628 5629 5629 5629 5630 5630 5630 5629 5628 5627 5625 5625
5638 5636 5634 5631 5629 5627 5625 5624 5622 5620 5620 5619 5618 5616 5615 5614 5614 5613 5613 5613 5614 5614 5615 5615 5616 5617 5618 5618 5619 5620 5621 5622 5624 5624 5625 5625 5625 5625 5624 5622 5620 5620 5620
5632 5630 5628 5625 5623 5620 5619 5617 5615 5614 5613 5613 5612 5610 5609 5608 5607 5607 5607 5607 5607 5608 5609 5610 5610 5611 5612 5612 5613 5614 5614 5616 5616 5618 5618 5619 5620 5620 5619 5618 5618 5617 5616
5626 5624 5622 5619 5617 5615 5613 5611 5609 5608 5607 5606 5605 5604 5603 5602 5601 5600 5600 5600 5601 5602 5602 5603 5604 5605 5605 5606 5606 5608 5608 5609 5610 5611 5612 5613 5614 5614 5614 5613 5613 5613 5613
5619 5617 5615 5613 5611 5609 5606 5604 5603 5602 5600 5599 5598 5597 5597 5596 5595 5594 5594 5594 5594 5594 5595 5596 5597 5598 5599 5599 5600 5602 5602 5602 5603 5605 5606 5607 5608 5609 5609 5609 5608 5608 5609
5612 5609 5607 5605 5603 5601 5599 5598 5596 5594 5593 5592 5591 5590 5590 5590 5589 5588 5588 5588 5588 5588 5588 5589 5590 5591 5592 5593 5594 5595 5596 5597 5597 5599 5600 5602 5603 5604 5603 5603 5603 5603 5603
5604 5602 5600 5598 5596 5594 5593 5591 5589 5588 5586 5585 5584 5584 5583 5583 5583 5583 5582 5582 5582 5582 5582 5582 5583 5584 5585 5586 5587 5588 5590 5590 5592 5593 5595 5596 5597 5597 5597 5598 5598 5597 5597
5597 5595 5593 5592 5590 5588 5586 5585 5584 5583 5581 5580 5579 5578 5577 5577 5578 5576 5575 5576 5576 5576 5575 5575 5576 5577 5578 5579 5581 5582 5583 5584 5586 5587 5588 5589 5591 5592 5592 5592 5591 5591 5591
5590 5588 5587 5585 5583 5581 5580 5579 5578 5577 5576 5575 5574 5573 5572 5572 5572 5571 5571 5570 5569 5569 5568 5570 5570 5571 5572 5573 5575 5576 5577 5578 5580 5581 5582 5583 5584 5585 5586 5585 5585 5585 5585
5584 5582 5580 5578 5576 5575 5573 5572 5571 5572 5571 5571 5569 5568 5567 5566 5566 5565 5565 5564 5563 5562 5562 5564 5565 5566 5566 5567 5568 5570 5572 5573 5574 5575 5576 5577 5578 5579 5580 5580 5580 5580 5580
5578 5576 5574 5571 5570 5568 5567 5566 5565 5565 5565 5565 5564 5562 5561 5561 5560 5559 5558 5558 5558 5557 5557 5559 5560 5561 5561 5562 5563 5565 5566 5567 5568 5569 5570 5571 5572 5573 5574 5574 5574 5574 5574
5572 5570 5568 5566 5564 5562 5561 5560 5559 5559 5558 5558 5557 5557 5556 5555 5554 5553 5552 5552 5553 5553 5554 5554 5555 5556 5557 5558 5559 5559 5560 5562 5563 5564 5565 5566 5567 5568 5569 5570 5570 5568 5568
5567 5565 5563 5560 5559 5557 5556 5554 5553 5553 5552 5552 5551 5550 5549 5548 5548 5547 5546 5546 5547 5548 5549 5549 5551 5551 5552 5553 5553 5554 5555 5557 5558 5559 5560 5561 5562 5563 5564 5564 5564 5564 5563
5561 5559 5557 5555 5553 5552 5551 5549 5548 5547 5547 5547 5546 5545 5542 5542 5542 5542 5542 5541 5542 5543 5543 5544 5545 5546 5547 5547 5549 5550 5551 5553 5554 5555 5556 5557 5558 5558 5558 5558 5558 5558 5557
5556 5554 5552 5550 5548 5547 5545 5544 5543 5542 5542 5541 5541 5539 5537 5536 5536 5536 5536 5537 5537 5537 5538 5539 5540 5541 5542 5543 5544 5546 5547 5549 5549 5550 5551 5552 5553 5553 5553 5552 5552 5551 5551
5550 5549 5547 5545 5543 5541 5540 5539 5538 5537 5537 5536 5535 5534 5533 5532 5531 5531 5531 5532 5532 5533 5534 5534 5535 5537 5538 5539 5540 5541 5543 5545 5546 5546 5547 5548 5548 5548 5549 5548 5547 5546 5545
5545 5543 5542 5541 5539 5537 5535 5534 5533 5533 5533 5532 5530 5529 5528 5528 5527 5527 5527 5527 5527 5528 5529 5530 5531 5533 5534 5535 5536 5537 5538 5540 5541 5542 5542 5543 5543 5544 5544 5543 5542 5541 5540
5540 5538 5537 5536 5534 5533 5531 5530 5530 5529 5529 5528 5526 5525 5525 5524 5523 5523 5523 5523 5523 5524 5525 5526 5527 5529 5530 5531 5532 5532 5533 5534 5535 5536 5537 5538 5538 5538 5538 5538 5537 5536 5535
5536 5535 5533 5532 5530 5529 5528 5527 5527 5526 5525 5524 5522 5522 5522 5521 5520 5519 5519 5519 5520 5520 5521 5522 5523 5525 5525 5526 5527 5528 5529 5529 5530 5531 5531 5532 5533 5533 5532 5532 5531 5530 5530